Flag for U.S.A. Weather past 2 weeks in Plano, Texas, U.S.A.

Now
85 °F

Sunny.


Feels Like: 85 °F
Forecast: 64 / 88 °F
Wind: 8 mph from West

Location: McKinney Municipal Airport

Current Time: Oct 25, 2014 at 2:23:32 PM

Latest Report: Oct 25, 2014 at 1:53 PM


Visibility: 10 mi

Pressure: 30.08 "Hg

Humidity: 43%

Dew point: 60 °F

Location of PlanoLocation

Historic Weather in Plano — Graph

°F

Plano temperature yesterday

Maximum temperature yesterday: 82 °F (at 4:53 PM)
Minimum temperature yesterday: 57 °F (at 2:53 AM)
Average temperature yesterday: 68 °F

Past Weeks' High & Low Weather Summary

 TemperatureHumidityPressure
High90 °F (Oct 10, 3:53 PM)100% (Oct 12, 8:53 PM)30.20 "Hg (Oct 12, 8:53 PM)
Low47 °F (Oct 15, 6:53 AM)22% (Oct 16, 2:53 PM)29.56 "Hg (Oct 13, 1:53 AM)
Average66 °F70%30.01 "Hg
* Reported Oct 10 12:53 PM — Oct 25 12:53 PM, Plano, Weather by CustomWeather, © 2014

Note: Actual official high and low records may vary slightly from our data, if they occured in-between our weather recording intervals... More about our weather records

Advertising

Plano weather history for previous 24 hours

 ConditionsComfort  
Time TempWeatherWind HumidityBarometerVisibility
12:53 PM
Oct 25
82 °FSunny.6 mph48%30.11 "Hg10 mi
11:53 AM79 °FSunny.3 mph52%30.13 "Hg10 mi
10:53 AM76 °FSunny.7 mph58%30.14 "Hg10 mi
9:53 AM71 °FSunny.9 mph66%30.14 "Hg10 mi
8:53 AM65 °FSunny.8 mph81%30.14 "Hg10 mi
7:53 AM60 °FClear.6 mph90%30.13 "Hg9 mi
6:53 AM60 °FClear.6 mph90%30.12 "Hg10 mi
5:53 AM61 °FClear.6 mph90%30.11 "Hg10 mi
4:53 AM62 °FClear.6 mph86%30.10 "Hg10 mi
3:53 AM62 °FClear.3 mph86%30.10 "Hg10 mi
2:53 AM62 °FClear.6 mph86%30.10 "Hg10 mi
1:53 AM64 °FClear.6 mph84%30.10 "Hg10 mi
12:53 AM67 °FClear.9 mph76%30.09 "Hg10 mi
11:53 PM
Oct 24
67 °FClear.8 mph79%30.10 "Hg10 mi
10:53 PM67 °FClear.7 mph79%30.10 "Hg10 mi
9:53 PM68 °FClear.7 mph78%30.09 "Hg10 mi
8:53 PM69 °FClear.7 mph76%30.08 "Hg10 mi
7:53 PM70 °FClear.6 mph71%30.08 "Hg10 mi
6:53 PM75 °FSunny.8 mph60%30.07 "Hg10 mi
5:53 PM80 °FSunny.9 mph51%30.06 "Hg10 mi
4:53 PM82 °FSunny.8 mph48%30.07 "Hg10 mi
3:53 PM81 °FSunny.8 mph47%30.08 "Hg10 mi
2:53 PM80 °FSunny.13 mph49%30.08 "Hg10 mi
Weather by CustomWeather, © 2014

See weather overviewHow to use our weather pages